[[{"header":{"parameterUnit":"m.s-1","parameterCategory":2,"la1":30.2991,"la2":30.254,"lo1":-89.0895,"lo2":-89.0444,"dy":0.0017,"dx":0.0017,"nx":28,"ny":28,"refTime":"2024-12-13T03:00:00:Z","depth":"0","parameterNumber":2,"parameterNumberName":"U-component_of_CURRENTS"},"data":[0,0,0,0,0,0,0,0,0,0,0,0,0,0,0,0,0,0,0,0,0,0,0,0,0,0,0,0,0,0,0,0,0,0,0,0,0,0,0,0,0,0,0,0,0,0,0,0,0,0,0,0,0,0,0,0,0,0,-0.2763,-0.2763,0,-0.2785,-0.2785,-0.2785,-0.2752,-0.2751,-0.2751,-0.275,-0.2698,-0.2697,-0.2697,0,0,0,0,0,0,0,0,0,0,0,0,0,-0.2682,-0.2683,-0.2763,-0.2763,-0.2764,-0.2785,-0.2785,-0.2785,-0.2753,-0.2751,-0.275,-0.2749,-0.2698,-0.2697,-0.2697,0,0,0,0,0,0,0,0,0,0,0,0,0,-0.2709,-0.2684,-0.2763,-0.2752,-0.2752,-0.2785,-0.2785,-0.2785,-0.2753,-0.2751,-0.275,-0.2749,-0.2698,-0.2697,-0.2696,-0.2718,0,0,-0.2694,-0.2693,0,0,0,0,0,0,0,0,-0.2708,-0.2712,-0.2753,-0.2753,-0.2753,-0.2767,-0.2738,-0.276,-0.2753,-0.2749,-0.275,-0.2748,-0.2717,-0.2715,-0.2718,-0.2715,-0.2713,-0.2694,-0.2693,-0.2693,-0.2693,0,0,0,0,0,0,0,-0.2706,-0.2711,-0.2768,-0.2754,-0.2754,-0.2743,-0.2746,-0.2742,-0.2737,-0.2749,-0.2748,-0.2756,-0.2716,-0.2719,-0.2717,-0.2712,-0.2694,-0.2693,-0.2693,-0.2692,-0.2719,-0.2721,0,0,0,0,0,0,-0.2711,-0.2709,-0.2768,-0.2769,-0.273,-0.2746,-0.2748,-0.2761,-0.2738,-0.2735,-0.2757,-0.2754,-0.2722,-0.2718,-0.2715,-0.2741,-0.2693,-0.2692,-0.2692,-0.2718,-0.272,-0.2721,0,0,0,0,0,0,-0.271,-0.2717,-0.2767,-0.2741,-0.2748,-0.2749,-0.2764,-0.2763,-0.2762,-0.2745,-0.2739,-0.2757,-0.272,-0.2716,-0.2717,-0.2738,-0.2692,-0.2691,-0.2717,-0.2719,-0.272,-0.2791,0,0,0,0,0,0,-0.2707,-0.2716,-0.2721,-0.2742,-0.2749,-0.2793,-0.2766,-0.2764,-0.277,-0.2767,-0.2744,-0.2738,-0.2719,-0.2719,-0.2716,-0.2736,-0.269,-0.2715,-0.2718,-0.272,-0.2787,-0.2795,-0.2802,0,0,0,0,0,-0.2704,-0.2721,-0.2722,-0.2728,-0.2759,-0.2795,-0.2798,-0.2792,-0.2772,-0.2783,-0.2766,-0.2738,-0.2731,-0.272,-0.2716,-0.2736,-0.2714,-0.2717,-0.272,-0.2784,-0.2793,-0.2801,0,0,0,0,0,0,-0.2683,-0.2721,-0.2721,-0.2746,-0.2772,-0.279,-0.2797,-0.2796,-0.2793,-0.2781,-0.2755,-0.275,-0.2759,-0.2741,-0.2728,-0.2751,-0.2718,-0.272,-0.2768,-0.2777,-0.2784,-0.2787,-0.269,0,0,0,0,0,-0.2685,-0.2705,-0.2741,-0.2757,-0.2773,-0.2785,-0.2795,-0.2798,-0.2802,-0.2799,-0.2786,-0.2772,-0.2772,-0.2767,-0.2762,-0.2776,-0.2761,-0.2786,-0.2794,-0.28,-0.2802,-0.2804,-0.2811,-0.273,-0.273,-0.273,0,0,-0.2677,-0.2701,-0.2711,-0.2754,-0.2767,-0.2804,-0.2786,-0.281,-0.2835,-0.2794,-0.281,-0.2797,-0.2782,-0.2798,-0.2801,-0.2783,-0.2818,-0.2804,-0.2809,-0.2807,-0.2807,-0.2815,-0.2822,-0.2732,-0.2732,-0.2731,0,0,-0.2684,-0.27,-0.2725,-0.2756,-0.2793,-0.281,-0.282,-0.2848,-0.2852,-0.2875,-0.2852,-0.2856,-0.285,-0.2851,-0.2848,-0.2895,-0.2858,-0.2888,-0.2926,-0.2929,-0.2936,-0.2941,-0.2942,-0.2947,-0.289,-0.289,-0.289,0,-0.2672,-0.2713,-0.2736,-0.2776,-0.2802,-0.2817,-0.2855,-0.2874,-0.2896,-0.2906,-0.2885,-0.2896,-0.2879,-0.2908,-0.292,-0.2912,-0.2901,-0.2894,-0.2939,-0.2944,-0.2948,-0.2948,-0.2952,-0.2894,-0.2894,-0.2893,-0.2893,0,-0.2704,-0.274,-0.2759,-0.2815,-0.2849,-0.2882,-0.2924,-0.2948,-0.2951,-0.2966,-0.2991,-0.2979,-0.298,-0.2983,-0.2961,-0.2991,-0.297,-0.2949,-0.2916,-0.296,-0.2957,-0.2961,-0.2899,-0.2898,-0.2897,-0.2896,0,0,-0.2662,-0.2762,-0.2766,-0.28,-0.2873,-0.29,-0.2957,-0.3009,-0.3034,-0.3052,-0.3081,-0.3089,-0.3072,-0.3068,-0.3049,-0.3052,-0.3075,-0.3011,-0.301,-0.3012,-0.3077,-0.3012,-0.3009,-0.3056,-0.3057,-0.3057,-0.3066,0,-0.2674,-0.275,-0.2802,-0.2867,-0.2909,-0.296,-0.3011,-0.3058,-0.3085,-0.3117,-0.3122,-0.3135,-0.3109,-0.3103,-0.3107,-0.3078,-0.3085,-0.3074,-0.3033,-0.3032,-0.2968,-0.3012,-0.2909,-0.2903,-0.3069,-0.307,-0.307,0,-0.268,-0.2733,-0.2803,-0.2898,-0.292,-0.2961,-0.3035,-0.3084,-0.3146,-0.3166,-0.3192,-0.3189,-0.3206,-0.3166,-0.3161,-0.3151,-0.3119,-0.31,-0.3099,-0.3013,-0.2973,-0.2883,-0.2902,-0.2887,-0.3075,-0.3075,-0.3074,0,-0.2622,-0.2728,-0.2779,-0.2813,-0.2924,-0.2958,-0.3008,-0.3085,-0.3128,-0.3186,-0.3213,-0.3238,-0.3238,-0.3219,-0.3176,-0.3166,-0.3159,-0.314,-0.3062,-0.3057,-0.2949,-0.2932,-0.2944,-0.3139,-0.3139,-0.3139,-0.3138,0,-0.2611,-0.2646,-0.2753,-0.2779,-0.2831,-0.2921,-0.2978,-0.3035,-0.312,-0.316,-0.3216,-0.3243,-0.3246,-0.3243,-0.32,-0.314,-0.3179,-0.3076,-0.3057,-0.2971,-0.2957,-0.2919,-0.2929,-0.3139,-0.3139,-0.3139,-0.3139,0,-0.2533,-0.2612,-0.2667,-0.2776,-0.2805,-0.2832,-0.2947,-0.2986,-0.3083,-0.3137,-0.3155,-0.3244,-0.3242,-0.3241,-0.3211,-0.3161,-0.3061,-0.3082,-0.2981,-0.295,-0.2849,-0.2866,-0.2824,-0.2742,-0.3003,-0.3002,-0.3,0,-0.25,-0.2522,-0.2625,-0.2647,-0.2691,-0.2757,-0.28,-0.2931,-0.2979,-0.3123,-0.3131,-0.319,-0.3193,-0.3159,-0.3097,-0.3035,-0.3004,-0.2896,-0.2857,-0.2836,-0.2843,-0.2836,-0.2769,-0.275,-0.2747,-0.2744,-0.2742,0,-0.2416,-0.245,-0.2489,-0.2539,-0.2582,-0.2643,-0.2717,-0.2763,-0.2909,-0.2972,-0.3044,-0.307,-0.3083,-0.2997,-0.2941,-0.2875,-0.2823,-0.2838,-0.2843,-0.2669,-0.2636,-0.2549,-0.2762,-0.2718,-0.272,-0.2722,-0.2723,-0.2724,-0.2323,-0.2324,-0.2372,-0.2403,-0.2452,-0.2493,-0.2495,-0.26,-0.2664,-0.2736,-0.2865,-0.2886,-0.2888,-0.2804,-0.2749,-0.2633,-0.2661,-0.255,-0.2582,-0.2585,-0.2475,-0.2637,-0.2552,-0.2554,-0.2555,-0.2556,-0.2557,0,-0.2197,-0.2211,-0.2234,-0.2265,-0.2254,-0.2335,-0.2401,-0.2383,-0.2399,-0.2529,-0.2574,-0.2656,-0.258,-0.2591,-0.2516,-0.2415,-0.2341,-0.2353,-0.2331,-0.2278,-0.2439,-0.2397,-0.2242,-0.2242,-0.2242,-0.2242,-0.2242,-0.2242,-0.2131,-0.2098,-0.2112,-0.2046,-0.2064,-0.2005,-0.2009,-0.201,-0.2066,-0.2126,-0.2235,-0.2378,-0.2415,-0.2565,-0.2443,-0.2326,-0.2251,-0.2182,-0.2195,-0.234,-0.2361,-0.2381,-0.2344,-0.2181,-0.2181,-0.1949,-0.1947,-0.1946]},{"header":{"parameterUnit":"m.s-1","parameterCategory":2,"la1":30.2991,"la2":30.254,"lo1":-89.0895,"lo2":-89.0444,"dy":0.0017,"dx":0.0017,"nx":28,"ny":28,"refTime":"2024-12-13T03:00:00:Z","depth":"0","parameterNumber":3,"parameterNumberName":"V-component_of_CURRENTS"},"data":[0,0,0,0,0,0,0,0,0,0,0,0,0,0,0,0,0,0,0,0,0,0,0,0,0,0,0,0,0,0,0,0,0,0,0,0,0,0,0,0,0,0,0,0,0,0,0,0,0,0,0,0,0,0,0,0,0,0,-0.0235,-0.0234,0,-0.0138,-0.0137,-0.0135,-0.0071,-0.007,-0.007,-0.007,0.0052,0.0054,0.0057,0,0,0,0,0,0,0,0,0,0,0,0,0,-0.0303,-0.0302,-0.0235,-0.0234,-0.0233,-0.0138,-0.0137,-0.0135,-0.0071,-0.007,-0.007,-0.0069,0.0051,0.0054,0.0058,0,0,0,0,0,0,0,0,0,0,0,0,0,-0.0245,-0.0302,-0.0235,-0.019,-0.0185,-0.0138,-0.0137,-0.0135,-0.0071,-0.007,-0.007,-0.0069,0.0049,0.0054,0.0058,0.0076,0,0,0.0072,0.0073,0,0,0,0,0,0,0,0,-0.0248,-0.0242,-0.0198,-0.0193,-0.0188,-0.0117,-0.0116,-0.0064,-0.0071,-0.0112,-0.007,-0.0069,-0.0004,0.0005,0.0024,0.0082,0.0087,0.0072,0.0075,0.0077,0.0078,0,0,0,0,0,0,0,-0.0253,-0.0246,-0.0195,-0.0197,-0.019,-0.0154,-0.0146,-0.0106,-0.006,-0.0109,-0.0104,-0.0096,-0.0001,0.0019,0.0027,0.0089,0.0072,0.0076,0.0078,0.008,0.0187,0.0187,0,0,0,0,0,0,-0.0271,-0.025,-0.0198,-0.0192,-0.0219,-0.0154,-0.0144,-0.0139,-0.0061,-0.0049,-0.0097,-0.0094,0.0012,0.0022,0.0032,0.0061,0.0076,0.0081,0.0083,0.0187,0.0187,0.0187,0,0,0,0,0,0,-0.0273,-0.0268,-0.0202,-0.022,-0.0209,-0.0154,-0.0148,-0.0137,-0.0118,-0.0052,-0.004,-0.0088,0.0012,0.0026,0.0067,0.0066,0.0083,0.0087,0.0186,0.0187,0.0187,0.0116,0,0,0,0,0,0,-0.0276,-0.0269,-0.0274,-0.0221,-0.0209,-0.0184,-0.0148,-0.0136,-0.0114,-0.0109,-0.0041,-0.0029,0.0014,0.006,0.0071,0.0072,0.009,0.0186,0.0187,0.0187,0.0118,0.0114,0.011,0,0,0,0,0,-0.0278,-0.0291,-0.0274,-0.0268,-0.0216,-0.0185,-0.0175,-0.0132,-0.0115,-0.0112,-0.0062,-0.0031,0.0071,0.0064,0.0077,0.0079,0.0186,0.0187,0.0187,0.012,0.0115,0.0111,0,0,0,0,0,0,-0.0324,-0.0284,-0.0265,-0.0265,-0.0231,-0.0174,-0.017,-0.0139,-0.0097,-0.0093,-0.0029,-0.0014,0.0022,0.006,0.0051,0.0112,0.0134,0.0137,0.0078,0.0074,0.007,0.0051,0.0094,0,0,0,0,0,-0.0337,-0.0336,-0.0289,-0.029,-0.0277,-0.0224,-0.0207,-0.0178,-0.0134,-0.0115,-0.0065,-0.0012,0.0035,0.006,0.0105,0.0136,0.0182,0.0148,0.0143,0.014,0.0134,0.0203,0.0204,0.0189,0.0189,0.0189,0,0,-0.0356,-0.0334,-0.0333,-0.03,-0.027,-0.026,-0.0213,-0.0194,-0.018,-0.0109,-0.0078,-0.0027,0.0039,0.0076,0.0096,0.0108,0.0169,0.014,0.0136,0.0133,0.0203,0.0205,0.0206,0.0189,0.0189,0.0189,0,0,-0.0399,-0.0373,-0.0388,-0.0365,-0.0329,-0.0293,-0.0292,-0.0239,-0.0209,-0.0174,-0.0116,-0.0066,-0.0001,0.0052,0.0086,0.0087,0.0143,0.01,0.0067,0.0133,0.0135,0.0137,0.0195,0.0203,0.01,0.01,0.01,0,-0.0424,-0.0432,-0.0387,-0.0394,-0.0381,-0.0314,-0.0324,-0.0283,-0.0221,-0.0195,-0.0176,-0.0062,-0.0011,0.005,0.0049,0.0078,0.0121,0.0077,0.0127,0.013,0.0134,0.0193,0.0202,0.0097,0.0097,0.0097,0.0098,0,-0.0474,-0.0479,-0.0486,-0.047,-0.0448,-0.0446,-0.0386,-0.0356,-0.0312,-0.0264,-0.0199,-0.0119,-0.005,-0.0025,0.0011,0.0062,0.0086,0.0111,0.0134,0.0131,0.0194,0.0205,0.0092,0.0093,0.0094,0.0095,0,0,-0.0534,-0.0526,-0.0527,-0.0535,-0.0489,-0.0479,-0.045,-0.0401,-0.0378,-0.0306,-0.0265,-0.0179,-0.0126,-0.0084,-0.0021,0.0035,0.0094,0.0072,0.0077,0.012,0.0235,0.0287,0.0305,0.0125,0.0127,0.0128,0.0269,0,-0.0587,-0.0629,-0.0597,-0.0622,-0.0636,-0.0565,-0.0543,-0.0486,-0.0421,-0.0363,-0.026,-0.0201,-0.0149,-0.0115,-0.005,0.006,0.012,0.0053,0.0241,0.0246,0.0286,0.0319,0.0358,0.049,0.028,0.0282,0.0283,0,-0.0644,-0.0665,-0.0709,-0.0702,-0.0699,-0.0695,-0.0642,-0.0612,-0.0505,-0.0453,-0.0364,-0.0277,-0.0172,-0.0133,0.0053,0.0006,0.0108,0.0193,0.0201,0.0281,0.032,0.0462,0.0519,0.0705,0.0301,0.03,0.0299,0,-0.0717,-0.0737,-0.0778,-0.0777,-0.0756,-0.0752,-0.0729,-0.0644,-0.0616,-0.0504,-0.0464,-0.0323,-0.0243,-0.0102,0.0082,0.0067,0.0287,0.0295,0.0441,0.0445,0.0533,0.0543,0.0784,0.0421,0.0421,0.042,0.042,0,-0.0787,-0.0816,-0.0819,-0.0843,-0.0879,-0.0829,-0.0833,-0.0781,-0.0701,-0.0667,-0.052,-0.0448,-0.0233,-0.0074,0.0076,0.0303,0.0292,0.0445,0.0492,0.0509,0.0515,0.0724,0.0779,0.0426,0.0424,0.0423,0.0423,0,-0.0858,-0.0861,-0.091,-0.0915,-0.0919,-0.0943,-0.092,-0.0914,-0.0824,-0.077,-0.0736,-0.0533,-0.0312,-0.0087,0.0168,0.0304,0.0624,0.0586,0.059,0.0635,0.0926,0.0973,0.1239,0.1332,0.0765,0.0767,0.0769,0,-0.0899,-0.0935,-0.0979,-0.1016,-0.1023,-0.1045,-0.1058,-0.0989,-0.0969,-0.0817,-0.0792,-0.0562,-0.0377,0.0032,0.0321,0.0619,0.0743,0.0816,0.0797,0.0965,0.1053,0.1086,0.1147,0.0887,0.089,0.0892,0.0894,0,-0.0974,-0.0988,-0.1031,-0.1115,-0.1151,-0.1183,-0.1186,-0.119,-0.109,-0.1012,-0.0856,-0.0692,-0.0265,0.012,0.0521,0.0696,0.0951,0.0869,0.1058,0.1184,0.1224,0.1327,0.0762,0.0914,0.0912,0.091,0.0909,0.0908,-0.1019,-0.1073,-0.1133,-0.1207,-0.1259,-0.1301,-0.1322,-0.1288,-0.1241,-0.1095,-0.0925,-0.0643,-0.0065,0.0525,0.0736,0.1198,0.1136,0.1325,0.1373,0.1396,0.1481,0.0951,0.1142,0.1142,0.1141,0.1141,0.114,0,-0.1073,-0.1134,-0.1218,-0.13,-0.1372,-0.137,-0.139,-0.1378,-0.1319,-0.1125,-0.0934,-0.0309,0.0264,0.0784,0.1446,0.1692,0.1731,0.181,0.1879,0.1918,0.1481,0.1482,0.1739,0.1739,0.1739,0.1739,0.1738,0.1738,-0.1102,-0.1196,-0.1244,-0.1374,-0.1431,-0.1488,-0.1499,-0.1447,-0.1321,-0.0996,-0.0644,-0.0356,0.0425,0.1517,0.2137,0.2186,0.2369,0.2351,0.2449,0.2158,0.2116,0.2076,0.2096,0.2477,0.2478,0.2877,0.2881,0.2884]}],[{"header":{"parameterUnit":"m.s-1","parameterCategory":2,"la1":30.2991,"la2":30.254,"lo1":-89.0895,"lo2":-89.0444,"dy":0.0017,"dx":0.0017,"nx":28,"ny":28,"refTime":"2024-12-13T03:00:00:Z","depth":"2","parameterNumber":2,"parameterNumberName":"U-component_of_CURRENTS"},"data":[0,0,0,0,0,0,0,0,0,0,0,0,0,0,0,0,0,0,0,0,0,0,0,0,0,0,0,0,0,0,0,0,0,0,0,0,0,0,0,0,0,0,0,0,0,0,0,0,0,0,0,0,0,0,0,0,0,0,-0.2546,-0.2546,0,-0.257,-0.257,-0.257,-0.2546,-0.2545,-0.2544,-0.2544,-0.2503,-0.2502,-0.2502,0,0,0,0,0,0,0,0,0,0,0,0,0,-0.2468,-0.2469,-0.2546,-0.2547,-0.2547,-0.257,-0.257,-0.257,-0.2546,-0.2545,-0.2544,-0.2544,-0.2503,-0.2502,-0.2502,0,0,0,0,0,0,0,0,0,0,0,0,0,-0.2495,-0.247,-0.2546,-0.254,-0.254,-0.257,-0.257,-0.257,-0.2546,-0.2545,-0.2544,-0.2543,-0.2503,-0.2502,-0.2502,-0.2518,0,0,-0.2499,-0.2499,0,0,0,0,0,0,0,0,-0.2494,-0.2498,-0.254,-0.254,-0.254,-0.2557,-0.2528,-0.255,-0.2546,-0.2541,-0.2544,-0.2543,-0.2517,-0.2515,-0.2519,-0.2516,-0.2514,-0.2499,-0.2499,-0.2499,-0.2498,0,0,0,0,0,0,0,-0.2492,-0.2497,-0.2552,-0.2541,-0.2541,-0.2533,-0.2535,-0.2532,-0.2531,-0.2541,-0.254,-0.2548,-0.2516,-0.252,-0.2518,-0.2513,-0.2499,-0.2499,-0.2498,-0.2498,-0.2528,-0.2529,0,0,0,0,0,0,-0.2497,-0.2495,-0.2552,-0.2554,-0.2517,-0.2535,-0.2538,-0.255,-0.2532,-0.253,-0.2549,-0.2547,-0.2521,-0.2518,-0.2516,-0.2546,-0.2499,-0.2498,-0.2498,-0.2527,-0.2528,-0.253,0,0,0,0,0,0,-0.2495,-0.2502,-0.2551,-0.2527,-0.2533,-0.2538,-0.2552,-0.2551,-0.2554,-0.2539,-0.2535,-0.2553,-0.252,-0.2517,-0.2522,-0.2544,-0.2498,-0.2497,-0.2526,-0.2527,-0.2529,-0.2599,0,0,0,0,0,0,-0.2493,-0.2501,-0.2508,-0.2527,-0.2534,-0.2577,-0.2553,-0.2552,-0.2562,-0.256,-0.2542,-0.2537,-0.2519,-0.2523,-0.2521,-0.2542,-0.2497,-0.2524,-0.2526,-0.2529,-0.2595,-0.2603,-0.2609,0,0,0,0,0,-0.249,-0.2507,-0.2508,-0.2515,-0.2545,-0.2579,-0.2582,-0.2579,-0.2564,-0.2575,-0.2562,-0.2537,-0.2536,-0.2524,-0.2521,-0.2542,-0.2523,-0.2526,-0.2528,-0.2592,-0.2601,-0.2609,0,0,0,0,0,0,-0.2472,-0.2507,-0.2508,-0.2533,-0.2558,-0.2576,-0.2585,-0.2585,-0.2585,-0.2577,-0.2554,-0.255,-0.2563,-0.2545,-0.2532,-0.2558,-0.2525,-0.2527,-0.2574,-0.2583,-0.259,-0.2593,-0.2496,0,0,0,0,0,-0.2475,-0.2494,-0.2528,-0.2545,-0.256,-0.2573,-0.2584,-0.2588,-0.2595,-0.2593,-0.2584,-0.2573,-0.2574,-0.2571,-0.2568,-0.2583,-0.2568,-0.2594,-0.2602,-0.2608,-0.2609,-0.2611,-0.2619,-0.2539,-0.2539,-0.2539,0,0,-0.247,-0.2492,-0.2501,-0.2542,-0.2556,-0.2591,-0.2576,-0.2601,-0.2625,-0.2589,-0.2608,-0.2598,-0.2584,-0.2602,-0.2606,-0.2589,-0.2625,-0.2611,-0.2617,-0.2614,-0.2615,-0.2622,-0.2629,-0.2541,-0.254,-0.254,0,0,-0.2478,-0.2495,-0.2518,-0.2548,-0.2584,-0.26,-0.2611,-0.2639,-0.2646,-0.267,-0.265,-0.2657,-0.2654,-0.2655,-0.2653,-0.2699,-0.2665,-0.2694,-0.2732,-0.2735,-0.2741,-0.2747,-0.2748,-0.2752,-0.2697,-0.2697,-0.2697,0,-0.247,-0.2507,-0.2529,-0.2567,-0.2593,-0.2608,-0.2645,-0.2664,-0.2688,-0.27,-0.2683,-0.2697,-0.2683,-0.271,-0.2723,-0.2716,-0.2706,-0.27,-0.2744,-0.2749,-0.2753,-0.2753,-0.2757,-0.2701,-0.27,-0.27,-0.2699,0,-0.2501,-0.2535,-0.2554,-0.2606,-0.2639,-0.2672,-0.2712,-0.2738,-0.2744,-0.2759,-0.2787,-0.2777,-0.2781,-0.2784,-0.2764,-0.2794,-0.2775,-0.2754,-0.2722,-0.2766,-0.2762,-0.2766,-0.2706,-0.2704,-0.2703,-0.2702,0,0,-0.2465,-0.2558,-0.2562,-0.2594,-0.2663,-0.2689,-0.2744,-0.2794,-0.2821,-0.2842,-0.2872,-0.2882,-0.2869,-0.2866,-0.285,-0.2853,-0.2877,-0.2816,-0.2814,-0.2816,-0.288,-0.2817,-0.2814,-0.286,-0.2861,-0.2861,-0.2869,0,-0.2479,-0.2549,-0.2597,-0.2659,-0.2698,-0.2747,-0.2796,-0.2843,-0.2871,-0.2904,-0.2911,-0.2928,-0.2904,-0.2902,-0.2906,-0.288,-0.2887,-0.2876,-0.2837,-0.2836,-0.2774,-0.2817,-0.2593,-0.2576,-0.2872,-0.2873,-0.2873,0,-0.2486,-0.2535,-0.2601,-0.2688,-0.271,-0.275,-0.2822,-0.2869,-0.2931,-0.2953,-0.2981,-0.2981,-0.3,-0.2963,-0.296,-0.2951,-0.2921,-0.2902,-0.2902,-0.2818,-0.2779,-0.2578,-0.2571,-0.2878,-0.2878,-0.2877,-0.2877,0,-0.2434,-0.2532,-0.258,-0.2612,-0.2716,-0.2751,-0.2799,-0.2874,-0.2914,-0.2976,-0.3003,-0.303,-0.3033,-0.3016,-0.2978,-0.2967,-0.2963,-0.2942,-0.2866,-0.2861,-0.265,-0.2625,-0.294,-0.294,-0.294,-0.294,-0.294,0,-0.2424,-0.2458,-0.2558,-0.2583,-0.2633,-0.2718,-0.2775,-0.283,-0.2913,-0.2951,-0.301,-0.3035,-0.3043,-0.3041,-0.3002,-0.2944,-0.2983,-0.2879,-0.2861,-0.2669,-0.2647,-0.2886,-0.288,-0.294,-0.294,-0.294,-0.294,0,-0.2353,-0.2427,-0.2478,-0.2581,-0.261,-0.2638,-0.2748,-0.2784,-0.2881,-0.2933,-0.2952,-0.3037,-0.3038,-0.3041,-0.3014,-0.2965,-0.2921,-0.2889,-0.2667,-0.2622,-0.2814,-0.2812,-0.2813,-0.281,-0.2809,-0.2807,-0.2806,0,-0.2323,-0.2344,-0.2441,-0.2462,-0.2505,-0.2569,-0.2609,-0.2735,-0.2778,-0.2917,-0.2923,-0.2983,-0.2982,-0.2953,-0.2881,-0.282,-0.2879,-0.2579,-0.252,-0.2821,-0.2803,-0.2803,-0.2802,-0.227,-0.2265,-0.226,-0.2257,0,-0.2244,-0.2278,-0.2313,-0.236,-0.2401,-0.2456,-0.2526,-0.2567,-0.2705,-0.2762,-0.2825,-0.2847,-0.2852,-0.2697,-0.2645,-0.2569,-0.2574,-0.2486,-0.2844,-0.2346,-0.2312,-0.2294,-0.231,-0.2216,-0.222,-0.2223,-0.2225,-0.2227,-0.2158,-0.2158,-0.2202,-0.223,-0.2276,-0.2309,-0.2306,-0.2397,-0.2449,-0.2492,-0.2621,-0.2576,-0.2574,-0.2384,-0.228,-0.2195,-0.2365,-0.2235,-0.2248,-0.2265,-0.221,-0.2175,-0.2044,-0.2046,-0.2049,-0.2051,-0.2053,0,-0.2037,-0.205,-0.2069,-0.2094,-0.2078,-0.216,-0.2211,-0.2172,-0.2168,-0.2245,-0.2266,-0.2056,-0.1987,-0.1991,-0.1815,-0.1793,-0.1754,-0.1702,-0.1643,-0.1684,-0.172,-0.1636,-0.1318,-0.1316,-0.1314,-0.1312,0,0,-0.1973,-0.1937,-0.1947,-0.1876,-0.1893,-0.1826,-0.1821,-0.1783,-0.179,-0.1721,-0.1701,-0.1865,-0.1928,-0.1618,-0.1554,-0.1411,-0.1524,-0.1336,-0.1924,-0.1893,-0.1927,-0.2026,-0.1943,0,0,0,0,0]},{"header":{"parameterUnit":"m.s-1","parameterCategory":2,"la1":30.2991,"la2":30.254,"lo1":-89.0895,"lo2":-89.0444,"dy":0.0017,"dx":0.0017,"nx":28,"ny":28,"refTime":"2024-12-13T03:00:00:Z","depth":"2","parameterNumber":3,"parameterNumberName":"V-component_of_CURRENTS"},"data":[0,0,0,0,0,0,0,0,0,0,0,0,0,0,0,0,0,0,0,0,0,0,0,0,0,0,0,0,0,0,0,0,0,0,0,0,0,0,0,0,0,0,0,0,0,0,0,0,0,0,0,0,0,0,0,0,0,0,-0.0211,-0.021,0,-0.0119,-0.0118,-0.0117,-0.0056,-0.0056,-0.0055,-0.0055,0.006,0.0063,0.0066,0,0,0,0,0,0,0,0,0,0,0,0,0,-0.0277,-0.0276,-0.0211,-0.021,-0.0209,-0.0119,-0.0118,-0.0116,-0.0056,-0.0056,-0.0055,-0.0055,0.0059,0.0063,0.0066,0,0,0,0,0,0,0,0,0,0,0,0,0,-0.0222,-0.0276,-0.0211,-0.0169,-0.0165,-0.012,-0.0118,-0.0116,-0.0056,-0.0056,-0.0055,-0.0055,0.0058,0.0062,0.0066,0.0085,0,0,0.0079,0.0081,0,0,0,0,0,0,0,0,-0.0225,-0.0219,-0.0176,-0.0172,-0.0167,-0.01,-0.0099,-0.0048,-0.0056,-0.0096,-0.0055,-0.0055,0.0008,0.0016,0.0034,0.009,0.0095,0.008,0.0082,0.0084,0.0085,0,0,0,0,0,0,0,-0.0229,-0.0222,-0.0173,-0.0175,-0.017,-0.0135,-0.0127,-0.0089,-0.0046,-0.0092,-0.0088,-0.008,0.0011,0.003,0.0037,0.0097,0.008,0.0083,0.0086,0.0088,0.0191,0.0192,0,0,0,0,0,0,-0.0247,-0.0226,-0.0176,-0.017,-0.0197,-0.0135,-0.0126,-0.0121,-0.0047,-0.0036,-0.0081,-0.0078,0.0023,0.0032,0.0042,0.0071,0.0084,0.0088,0.0091,0.0191,0.0192,0.0192,0,0,0,0,0,0,-0.0248,-0.0243,-0.018,-0.0197,-0.0187,-0.0135,-0.0129,-0.0119,-0.01,-0.0038,-0.0026,-0.0073,0.0023,0.0036,0.0076,0.0076,0.009,0.0094,0.0191,0.0191,0.0192,0.0127,0,0,0,0,0,0,-0.0251,-0.0244,-0.0249,-0.0199,-0.0187,-0.0162,-0.0129,-0.0118,-0.0097,-0.0092,-0.0028,-0.0016,0.0025,0.0069,0.008,0.0082,0.0097,0.0191,0.0191,0.0192,0.0129,0.0125,0.0122,0,0,0,0,0,-0.0253,-0.0265,-0.025,-0.0243,-0.0194,-0.0163,-0.0153,-0.0113,-0.0097,-0.0094,-0.0047,-0.0018,0.008,0.0072,0.0085,0.0088,0.0191,0.0191,0.0192,0.0131,0.0126,0.0122,0,0,0,0,0,0,-0.0297,-0.0258,-0.0241,-0.024,-0.0207,-0.0153,-0.0149,-0.012,-0.008,-0.0076,-0.0016,-0.0001,0.0034,0.007,0.0061,0.0121,0.014,0.0143,0.0089,0.0086,0.0082,0.0063,0.0101,0,0,0,0,0,-0.0309,-0.0307,-0.0262,-0.0263,-0.025,-0.0201,-0.0184,-0.0157,-0.0114,-0.0096,-0.0049,0.0001,0.0046,0.0071,0.0114,0.0145,0.0187,0.0156,0.0153,0.015,0.0144,0.0209,0.021,0.0193,0.0193,0.0193,0,0,-0.0326,-0.0306,-0.0304,-0.0272,-0.0244,-0.0234,-0.0189,-0.0171,-0.0157,-0.0091,-0.006,-0.0012,0.0051,0.0087,0.0107,0.0118,0.0177,0.015,0.0147,0.0143,0.0209,0.0211,0.0212,0.0194,0.0194,0.0194,0,0,-0.0366,-0.0342,-0.0355,-0.0332,-0.0299,-0.0264,-0.0264,-0.0212,-0.0184,-0.0149,-0.0096,-0.0047,0.0016,0.0066,0.0099,0.0103,0.0154,0.0114,0.0085,0.0147,0.0149,0.0151,0.0204,0.0212,0.0115,0.0115,0.0115,0,-0.039,-0.0397,-0.0354,-0.0359,-0.0347,-0.0284,-0.0293,-0.0253,-0.0194,-0.0169,-0.0151,-0.0042,0.0007,0.0066,0.0066,0.0094,0.0133,0.0093,0.0142,0.0145,0.0148,0.0202,0.0211,0.0112,0.0112,0.0112,0.0113,0,-0.0435,-0.0439,-0.0446,-0.0429,-0.0408,-0.0406,-0.0348,-0.032,-0.0278,-0.0233,-0.017,-0.0093,-0.0028,-0.0002,0.0032,0.0082,0.0103,0.0126,0.0147,0.0145,0.0203,0.0214,0.0107,0.0109,0.0109,0.011,0,0,-0.0492,-0.0482,-0.0484,-0.0492,-0.0447,-0.0437,-0.0408,-0.0361,-0.0341,-0.027,-0.0232,-0.0147,-0.0098,-0.0058,0.0003,0.0057,0.0113,0.0091,0.0096,0.0135,0.0245,0.0288,0.0304,0.0143,0.0145,0.0146,0.0275,0,-0.0542,-0.058,-0.0549,-0.0572,-0.0585,-0.0517,-0.0496,-0.0442,-0.038,-0.0325,-0.0226,-0.017,-0.0119,-0.0088,-0.0024,0.0081,0.0138,0.0075,0.025,0.0255,0.0286,0.0317,0.0262,0.0376,0.0286,0.0288,0.0289,0,-0.0595,-0.0614,-0.0655,-0.0649,-0.0646,-0.0643,-0.0594,-0.0565,-0.0463,-0.0414,-0.0328,-0.0245,-0.0144,-0.0106,0.0071,0.0028,0.0124,0.0205,0.0213,0.0281,0.0317,0.0366,0.0399,0.0307,0.0306,0.0304,0.0303,0,-0.0667,-0.0684,-0.0724,-0.0722,-0.0702,-0.0699,-0.0677,-0.0597,-0.0572,-0.0465,-0.0429,-0.0292,-0.0218,-0.008,0.0094,0.0082,0.0289,0.03,0.0432,0.0436,0.0439,0.0441,0.042,0.042,0.042,0.0419,0.0419,0,-0.0734,-0.0762,-0.0765,-0.0787,-0.0825,-0.0776,-0.0782,-0.0733,-0.0658,-0.0628,-0.0485,-0.042,-0.021,-0.0059,0.0086,0.0299,0.0292,0.0435,0.0478,0.0416,0.0414,0.0392,0.0387,0.0424,0.0423,0.0422,0.0421,0,-0.0805,-0.0806,-0.0854,-0.0859,-0.0864,-0.0889,-0.087,-0.0866,-0.0781,-0.0732,-0.0701,-0.0508,-0.03,-0.0081,0.0163,0.0294,0.0487,0.0561,0.0472,0.0503,0.059,0.058,0.0719,0.0722,0.0724,0.0726,0.0728,0,-0.0845,-0.088,-0.0923,-0.096,-0.0968,-0.0992,-0.1006,-0.0941,-0.0925,-0.0784,-0.0762,-0.0546,-0.0375,0.0012,0.0279,0.0563,0.056,0.0671,0.0645,0.0596,0.0623,0.061,0.0597,0.0622,0.0623,0.0624,0.0624,0,-0.0919,-0.0934,-0.0976,-0.1059,-0.1097,-0.113,-0.1136,-0.1142,-0.1048,-0.0979,-0.0838,-0.0686,-0.0294,0.0025,0.0403,0.0557,0.0622,0.0691,0.0681,0.0553,0.0515,0.0538,0.0527,0.0628,0.0628,0.0628,0.0627,0.0627,-0.0966,-0.102,-0.1079,-0.1152,-0.1205,-0.1249,-0.1272,-0.1242,-0.1204,-0.1072,-0.0917,-0.0666,-0.0334,0.02,0.0467,0.0711,0.0712,0.0759,0.0753,0.0748,0.0712,0.068,0.0817,0.0817,0.0818,0.0818,0.0819,0,-0.1022,-0.1082,-0.1165,-0.1247,-0.1318,-0.1318,-0.1342,-0.1326,-0.1276,-0.111,-0.0939,-0.058,-0.0197,0.0146,0.0539,0.0782,0.0749,0.0809,0.0712,0.0707,0.0702,0.066,0.0754,0.0754,0.0755,0.0755,0,0,-0.1052,-0.1144,-0.1191,-0.132,-0.1378,-0.1436,-0.1449,-0.139,-0.1276,-0.1107,-0.0913,-0.0634,-0.0202,0.0057,0.0365,0.0569,0.0569,0.0582,0.0608,0.0452,0.0444,0.065,0.0577,0,0,0,0,0]}],[{"header":{"parameterUnit":"m.s-1","parameterCategory":2,"la1":30.2991,"la2":30.254,"lo1":-89.0895,"lo2":-89.0444,"dy":0.0017,"dx":0.0017,"nx":28,"ny":28,"refTime":"2024-12-13T03:00:00:Z","depth":"4","parameterNumber":2,"parameterNumberName":"U-component_of_CURRENTS"},"data":[0,0,0,0,0,0,0,0,0,0,0,0,0,0,0,0,0,0,0,0,0,0,0,0,0,0,0,0,0,0,0,0,0,0,0,0,0,0,0,0,0,0,0,0,0,0,0,0,0,0,0,0,0,0,0,0,0,0,-0.1766,-0.1767,0,-0.1838,-0.1838,-0.1839,-0.1882,-0.1882,-0.1882,-0.1883,-0.1934,-0.1935,-0.1936,0,0,0,0,0,0,0,0,0,0,0,0,0,-0.1659,-0.166,-0.1766,-0.1767,-0.1769,-0.1837,-0.1838,-0.1839,-0.1881,-0.1882,-0.1882,-0.1883,-0.1933,-0.1935,-0.1936,0,0,0,0,0,0,0,0,0,0,0,0,0,-0.1713,-0.1661,-0.1766,-0.18,-0.1804,-0.1837,-0.1838,-0.1839,-0.1881,-0.1882,-0.1883,-0.1883,-0.1933,-0.1934,-0.1936,-0.1933,0,0,-0.194,-0.1941,0,0,0,0,0,0,0,0,-0.171,-0.1717,-0.1794,-0.1797,-0.1802,-0.1853,-0.1819,-0.187,-0.1881,-0.1849,-0.1883,-0.1883,-0.1906,-0.191,-0.1919,-0.1935,-0.1938,-0.1941,-0.1941,-0.1942,-0.1942,0,0,0,0,0,0,0,-0.1706,-0.1714,-0.1792,-0.1795,-0.18,-0.1808,-0.1817,-0.1829,-0.1871,-0.1852,-0.1856,-0.1867,-0.1908,-0.1917,-0.192,-0.1938,-0.194,-0.1942,-0.1943,-0.1943,-0.2037,-0.2038,0,0,0,0,0,0,-0.1702,-0.1711,-0.179,-0.1795,-0.1759,-0.181,-0.1819,-0.1834,-0.1872,-0.1879,-0.1867,-0.1869,-0.1915,-0.1919,-0.1922,-0.2001,-0.1942,-0.1943,-0.1944,-0.2035,-0.2037,-0.2039,0,0,0,0,0,0,-0.1699,-0.1708,-0.1787,-0.1756,-0.1767,-0.1812,-0.1828,-0.1835,-0.1876,-0.1883,-0.189,-0.1903,-0.1915,-0.192,-0.1966,-0.2,-0.1944,-0.1945,-0.2033,-0.2036,-0.2038,-0.2108,0,0,0,0,0,0,-0.1696,-0.1707,-0.173,-0.1755,-0.1768,-0.1831,-0.1828,-0.1836,-0.1881,-0.1886,-0.1916,-0.192,-0.1916,-0.1964,-0.1967,-0.2001,-0.1947,-0.2031,-0.2034,-0.2037,-0.2103,-0.2112,-0.212,0,0,0,0,0,-0.1692,-0.1718,-0.1731,-0.1741,-0.1794,-0.1833,-0.1841,-0.1872,-0.1883,-0.1909,-0.1932,-0.1921,-0.1985,-0.1966,-0.197,-0.2006,-0.203,-0.2033,-0.2037,-0.21,-0.211,-0.2119,0,0,0,0,0,0,-0.1684,-0.1726,-0.174,-0.1779,-0.1815,-0.1841,-0.1872,-0.189,-0.1929,-0.1941,-0.1942,-0.1948,-0.2,-0.1994,-0.1973,-0.2041,-0.2005,-0.2009,-0.2051,-0.2061,-0.2069,-0.2064,-0.1948,0,0,0,0,0,-0.1692,-0.1724,-0.1761,-0.1795,-0.1816,-0.1849,-0.1874,-0.1897,-0.1928,-0.1947,-0.197,-0.1991,-0.2012,-0.2031,-0.2047,-0.2086,-0.2068,-0.211,-0.2119,-0.2125,-0.2124,-0.213,-0.2138,-0.205,-0.205,-0.205,0,0,-0.1699,-0.1726,-0.1746,-0.1796,-0.1826,-0.1865,-0.1866,-0.1916,-0.1955,-0.1945,-0.2012,-0.2024,-0.2029,-0.2074,-0.2097,-0.2078,-0.2144,-0.213,-0.2136,-0.2131,-0.2134,-0.2143,-0.215,-0.2053,-0.2052,-0.2052,0,0,-0.1719,-0.1755,-0.1786,-0.1821,-0.1876,-0.1897,-0.1919,-0.1967,-0.2,-0.2057,-0.2059,-0.2095,-0.2133,-0.2144,-0.2151,-0.2213,-0.2186,-0.2223,-0.2263,-0.2269,-0.2276,-0.2281,-0.2278,-0.2283,-0.2228,-0.2228,-0.2228,0,-0.1728,-0.1771,-0.1802,-0.1843,-0.1878,-0.1916,-0.1959,-0.1996,-0.2056,-0.2085,-0.209,-0.2155,-0.2163,-0.2207,-0.223,-0.2232,-0.2226,-0.2225,-0.2279,-0.2284,-0.2289,-0.2283,-0.2288,-0.2232,-0.2231,-0.2231,-0.2231,0,-0.176,-0.181,-0.1835,-0.1897,-0.1939,-0.1985,-0.2036,-0.2088,-0.2129,-0.2159,-0.2226,-0.2241,-0.2274,-0.2288,-0.2278,-0.2322,-0.2304,-0.2287,-0.2251,-0.2301,-0.2293,-0.2297,-0.2237,-0.2236,-0.2235,-0.2234,0,0,-0.1736,-0.1838,-0.185,-0.189,-0.1974,-0.2006,-0.2082,-0.2149,-0.2196,-0.2256,-0.2308,-0.2352,-0.236,-0.2367,-0.2367,-0.2376,-0.2407,-0.2351,-0.2349,-0.2342,-0.2417,-0.2266,-0.2255,-0.2401,-0.2402,-0.2402,-0.24,0,-0.1754,-0.1832,-0.1884,-0.1965,-0.2007,-0.2074,-0.2137,-0.2205,-0.226,-0.2321,-0.2352,-0.24,-0.2391,-0.241,-0.2422,-0.241,-0.2419,-0.2409,-0.2373,-0.2372,-0.2227,-0.2254,-0.2405,-0.2403,-0.2403,-0.2404,-0.2404,0,-0.1759,-0.1814,-0.1896,-0.1998,-0.2025,-0.2084,-0.2184,-0.2245,-0.2333,-0.2377,-0.2431,-0.2452,-0.2491,-0.2467,-0.248,-0.2475,-0.2453,-0.2438,-0.2437,-0.227,-0.2226,-0.234,-0.241,-0.2409,-0.2409,-0.2408,-0.2408,0,-0.1702,-0.1817,-0.1883,-0.1921,-0.2042,-0.2099,-0.2165,-0.2264,-0.2316,-0.2411,-0.2451,-0.2502,-0.2526,-0.252,-0.2497,-0.2494,-0.2489,-0.2478,-0.2323,-0.2313,-0.242,-0.2413,-0.2478,-0.2478,-0.2478,-0.2478,-0.2478,0,-0.1679,-0.1734,-0.1869,-0.1902,-0.1981,-0.2078,-0.2165,-0.2237,-0.2338,-0.238,-0.247,-0.249,-0.254,-0.2542,-0.2514,-0.2419,-0.2504,-0.2325,-0.2299,-0.2451,-0.2448,-0.2422,-0.2416,-0.2478,-0.2478,-0.2478,-0.2478,0,-0.1598,-0.1692,-0.177,-0.191,-0.1956,-0.2009,-0.2152,-0.2197,-0.2316,-0.2371,-0.2402,-0.2492,-0.2489,-0.2514,-0.2499,-0.2419,-0.2359,-0.2305,-0.2468,-0.2452,-0.2178,-0.2175,-0.213,-0.2124,-0.212,-0.2116,-0.2113,0,-0.1559,-0.1594,-0.1746,-0.1788,-0.1857,-0.1958,-0.2014,-0.2159,-0.2198,-0.2338,-0.2332,-0.2398,-0.243,-0.2289,-0.2337,-0.2279,-0.2249,-0.2211,-0.2189,-0.2161,-0.2141,-0.2146,-0.215,-0.2105,-0.2104,-0.2103,-0.2102,0,-0.1471,-0.1541,-0.16,-0.1686,-0.176,-0.1833,-0.1925,-0.1941,-0.2083,-0.2217,-0.2196,-0.2192,-0.2187,-0.2171,-0.2145,-0.2102,-0.2232,-0.2163,-0.2172,-0.2151,-0.2131,-0.2117,-0.2126,-0.2086,-0.2088,-0.209,-0.209,0,-0.1397,-0.1412,-0.1495,-0.1552,-0.1637,-0.1662,-0.1744,-0.1782,-0.1843,-0.1999,-0.1981,-0.2055,-0.215,-0.2077,-0.2049,-0.2002,-0.197,-0.19,-0.1922,-0.1941,-0.1879,-0.1826,-0.1656,0,0,0,0,0,-0.131,-0.1307,-0.135,-0.1403,-0.1478,-0.1526,-0.1651,-0.1736,-0.1878,-0.1803,-0.1889,-0.1873,-0.1846,-0.1889,-0.1797,-0.1967,-0.198,-0.1853,-0.1913,-0.1997,-0.2016,-0.196,0,0,0,0,0,0,-0.1251,-0.1284,-0.1295,-0.1254,-0.1258,-0.1325,-0.1397,-0.1507,-0.1481,-0.1633,-0.1622,-0.1743,-0.174,-0.1852,-0.1748,-0.1762,-0.1758,-0.1913,-0.1907,-0.1987,-0.2003,-0.2018,-0.1968,0,0,0,0,0]},{"header":{"parameterUnit":"m.s-1","parameterCategory":2,"la1":30.2991,"la2":30.254,"lo1":-89.0895,"lo2":-89.0444,"dy":0.0017,"dx":0.0017,"nx":28,"ny":28,"refTime":"2024-12-13T03:00:00:Z","depth":"4","parameterNumber":3,"parameterNumberName":"V-component_of_CURRENTS"},"data":[0,0,0,0,0,0,0,0,0,0,0,0,0,0,0,0,0,0,0,0,0,0,0,0,0,0,0,0,0,0,0,0,0,0,0,0,0,0,0,0,0,0,0,0,0,0,0,0,0,0,0,0,0,0,0,0,0,0,-0.0146,-0.0146,0,-0.0083,-0.0082,-0.0082,-0.004,-0.004,-0.004,-0.0039,0.0051,0.0053,0.0056,0,0,0,0,0,0,0,0,0,0,0,0,0,-0.0187,-0.0187,-0.0146,-0.0146,-0.0145,-0.0083,-0.0082,-0.0081,-0.004,-0.004,-0.004,-0.0039,0.005,0.0053,0.0056,0,0,0,0,0,0,0,0,0,0,0,0,0,-0.015,-0.0187,-0.0146,-0.0118,-0.0115,-0.0084,-0.0082,-0.0081,-0.004,-0.004,-0.0039,-0.0039,0.0049,0.0053,0.0056,0.0072,0,0,0.0067,0.0068,0,0,0,0,0,0,0,0,-0.0152,-0.0149,-0.0123,-0.012,-0.0116,-0.007,-0.0064,-0.0029,-0.004,-0.0067,-0.0039,-0.0039,0.0012,0.0018,0.0031,0.0077,0.0081,0.0067,0.0069,0.007,0.0071,0,0,0,0,0,0,0,-0.0155,-0.0151,-0.012,-0.0122,-0.0118,-0.0093,-0.0088,-0.0057,-0.0028,-0.0065,-0.0062,-0.0057,0.0014,0.0028,0.0034,0.0082,0.0067,0.007,0.0072,0.0073,0.0161,0.0161,0,0,0,0,0,0,-0.0168,-0.0154,-0.0122,-0.0118,-0.0136,-0.0093,-0.0087,-0.0084,-0.0029,-0.0021,-0.0057,-0.0055,0.0022,0.003,0.0037,0.0064,0.007,0.0074,0.0075,0.0161,0.0161,0.0161,0,0,0,0,0,0,-0.0169,-0.0166,-0.0124,-0.0135,-0.0128,-0.0093,-0.009,-0.0083,-0.0071,-0.0024,-0.0015,-0.0053,0.0023,0.0032,0.0065,0.0068,0.0075,0.0078,0.016,0.0161,0.0161,0.0115,0,0,0,0,0,0,-0.0171,-0.0167,-0.0172,-0.0136,-0.0128,-0.0112,-0.009,-0.0082,-0.0069,-0.0066,-0.0017,-0.0008,0.0023,0.0059,0.0068,0.0072,0.0081,0.016,0.016,0.0161,0.0116,0.0114,0.0111,0,0,0,0,0,-0.0172,-0.0181,-0.0172,-0.0168,-0.0135,-0.0113,-0.0106,-0.0079,-0.0069,-0.0067,-0.0031,-0.001,0.0069,0.0062,0.0072,0.0078,0.016,0.016,0.0161,0.0117,0.0114,0.0112,0,0,0,0,0,0,-0.0201,-0.0176,-0.0166,-0.0167,-0.0145,-0.0106,-0.0104,-0.0084,-0.0055,-0.0053,-0.0007,0.0005,0.0034,0.0063,0.0054,0.0106,0.0119,0.0121,0.0082,0.0079,0.0077,0.006,0.0084,0,0,0,0,0,-0.0211,-0.0211,-0.0181,-0.0183,-0.0174,-0.0141,-0.0129,-0.0111,-0.008,-0.0066,-0.0031,0.0009,0.0045,0.0066,0.01,0.0127,0.0158,0.0138,0.0136,0.0134,0.0128,0.0181,0.0183,0.0163,0.0163,0.0163,0,0,-0.0223,-0.021,-0.0211,-0.0189,-0.0171,-0.0164,-0.0133,-0.0121,-0.0111,-0.0061,-0.0038,0.0,0.005,0.0081,0.0097,0.0105,0.0156,0.0135,0.0132,0.0128,0.0182,0.0184,0.0185,0.0164,0.0164,0.0164,0,0,-0.025,-0.0237,-0.0247,-0.0232,-0.021,-0.0186,-0.0186,-0.015,-0.013,-0.0104,-0.0063,-0.0023,0.0027,0.0069,0.0095,0.0102,0.014,0.0112,0.0091,0.0142,0.0144,0.0146,0.0184,0.019,0.0114,0.0114,0.0114,0,-0.0268,-0.0275,-0.0246,-0.0249,-0.0244,-0.02,-0.0208,-0.0178,-0.0135,-0.0119,-0.0105,-0.0018,0.0022,0.0072,0.0074,0.0097,0.0126,0.0094,0.0138,0.0141,0.0144,0.0183,0.019,0.0112,0.0112,0.0112,0.0112,0,-0.0297,-0.0304,-0.0309,-0.0299,-0.0286,-0.0287,-0.0246,-0.0226,-0.0198,-0.0165,-0.0116,-0.0053,-0.0003,0.0021,0.0049,0.0092,0.0106,0.0126,0.0141,0.0143,0.0184,0.0192,0.0109,0.0109,0.011,0.011,0,0,-0.0333,-0.0332,-0.0335,-0.0347,-0.0316,-0.0312,-0.029,-0.0259,-0.0249,-0.0191,-0.0167,-0.0093,-0.0056,-0.0024,0.0027,0.0075,0.0121,0.0102,0.0105,0.0132,0.0225,0.0206,0.0213,0.0148,0.0149,0.015,0.0244,0,-0.0368,-0.04,-0.038,-0.0404,-0.0417,-0.0373,-0.036,-0.0323,-0.028,-0.0242,-0.016,-0.0119,-0.0072,-0.0049,0.0008,0.0093,0.0141,0.0093,0.0226,0.023,0.0206,0.0221,0.0154,0.025,0.0252,0.0254,0.0255,0,-0.0402,-0.0421,-0.0459,-0.0468,-0.0469,-0.0473,-0.0448,-0.0429,-0.0356,-0.0321,-0.0253,-0.0188,-0.0102,-0.0067,0.0081,0.0047,0.0125,0.0193,0.0199,0.0201,0.0225,0.0251,0.027,0.0269,0.0267,0.0266,0.0265,0,-0.0451,-0.0474,-0.0513,-0.0516,-0.0514,-0.0521,-0.0513,-0.046,-0.0448,-0.0369,-0.0347,-0.0231,-0.0176,-0.0056,0.0086,0.0084,0.0246,0.0264,0.0323,0.0323,0.0332,0.0329,0.0363,0.0362,0.0362,0.0362,0.0362,0,-0.0492,-0.0523,-0.0546,-0.0568,-0.0614,-0.0585,-0.0608,-0.0575,-0.0528,-0.0513,-0.0398,-0.0355,-0.0172,-0.0053,0.0074,0.0221,0.0241,0.0319,0.0348,0.031,0.0304,0.0338,0.0333,0.0365,0.0365,0.0364,0.0363,0,-0.0533,-0.0548,-0.06,-0.0627,-0.0642,-0.0675,-0.0688,-0.0694,-0.0638,-0.0611,-0.0588,-0.0443,-0.0284,-0.01,0.0103,0.0195,0.0344,0.039,0.0329,0.0353,0.0389,0.0381,0.0463,0.0463,0.0463,0.0463,0.0463,0,-0.0556,-0.0588,-0.0657,-0.0701,-0.0721,-0.0763,-0.079,-0.0757,-0.0753,-0.0663,-0.065,-0.0495,-0.038,-0.0105,0.0083,0.0328,0.0359,0.0427,0.0414,0.038,0.04,0.0393,0.0385,0.0463,0.0463,0.0463,0.0463,0,-0.0598,-0.0628,-0.0673,-0.0769,-0.0823,-0.0872,-0.09,-0.0905,-0.0848,-0.0806,-0.069,-0.0528,-0.0347,-0.0119,0.0075,0.0248,0.0379,0.0429,0.043,0.0419,0.0382,0.04,0.0393,0.0464,0.0464,0.0464,0.0464,0,-0.0628,-0.0676,-0.0745,-0.0822,-0.09,-0.0949,-0.0959,-0.0936,-0.0918,-0.0804,-0.0772,-0.0553,-0.0421,-0.0161,0.0015,0.0189,0.0229,0.027,0.028,0.0282,0.0201,0.0126,0.0154,0,0,0,0,0,-0.0649,-0.0706,-0.079,-0.0873,-0.0951,-0.0988,-0.1016,-0.1004,-0.0953,-0.0883,-0.082,-0.0643,-0.0357,-0.023,-0.0059,0.0007,0.0247,0.0208,0.0295,0.0466,0.0466,0.04,0,0,0,0,0,0,-0.0665,-0.0747,-0.0791,-0.0895,-0.0956,-0.1029,-0.1047,-0.1014,-0.0958,-0.0885,-0.073,-0.0625,-0.0346,-0.0454,-0.0063,-0.0009,0.0063,0.0353,0.0356,0.0466,0.0466,0.0466,0.0398,0,0,0,0,0]}]]